Meath Environmental Platform

Observations for Trim Market St

Time AQI Temp °C Hum % Pres Pa CO μg/m³ H₂S μg/m³ NO μg/m³ NO₂ μg/m³ O₃ μg/m³ SO₂ μg/m³ PM1 μg/m³ PM2.5 μg/m³ PM10 μg/m³
Tuesday 25 August 2026
05:57 2 15.4 74 46,718 0.32 0 1.61 10.44 41.65 0 1.43 3.33 5.73
05:56 2 15.5 74 46,841 0.44 0 1.67 11.56 43.72 0 0.71 2.85 5.73
05:55 2 15.5 74 46,934 0.66 0 1.66 16.11 38.97 0 2.14 3.33 5.73
05:54 2 15.5 74 47,051 0.35 0 1.6 11.77 43.62 0 1.43 2.85 5.13
05:53 2 15.5 74 47,140 0.27 0 1.62 9.47 45.57 0 0.71 2.38 5.12
05:52 2 15.5 74 47,230 0.27 0 1.66 10.5 45.17 0 0.71 2.85 5.13
05:51 2 15.5 74 47,265 0.27 0 1.61 8.99 48.63 0 2.14 3.33 5.73
05:47 2 15.5 74 47,299 0.32 0 1.59 9.4 46.12 0 1.43 2.85 5.73
05:40 2 15.6 74 47,388 0.27 0 1.38 9.35 46.07 0 0.71 2.37 4.52
05:39 2 15.6 74 47,334 0.27 0 1.46 9.63 46.22 0 2.14 3.82 6.33
05:37 2 15.6 74 47,195 0.26 0 1.59 9.42 43.42 0 1.43 3.34 6.33
05:34 2 15.6 74 47,042 0.31 0 1.34 9.42 46.72 0 1.43 2.86 5.73
05:33 2 15.6 74 47,034 0.27 0 1.48 9.96 47.78 0 0.71 2.38 4.52
05:32 2 15.6 74 47,046 0.27 0 1.45 9.42 46.82 0 1.43 2.86 5.12
05:30 2 15.7 74 47,051 0.26 0 1.4 9.49 46.65 0 0.71 2.86 5.73
05:28 2 15.7 74 47,086 0.27 0 1.3 9.69 48.16 0 1.43 3.34 6.93
05:27 2 15.7 74 47,167 0.26 0 1.35 12.04 45.07 0 0.71 2.38 5.73
05:26 2 15.7 74 47,265 0.27 0 1.49 9.6 47.53 0 0.71 2.38 4.52
05:25 2 15.7 74 47,308 0.28 0 1.56 11.44 45.52 0 0.71 2.86 5.73
05:24 2 15.7 74 47,358 0.27 0 1.55 9.66 47.66 0 0 2.38 4.52